Vorticity
20 25 26 16 6 23 18 19 27 28 16 12 10 9 51 -7 7 14 7 12 16 10 10 9 3 2 10 16 8 3 4 -4 0 9 13 4 3 3 10 8 19 5 13
30 13 11 7 23 17 20 26 35 31 26 34 2 -42 -10 6 3 17 18 17 20 12 10 6 7 10 10 8 -8 14 3 9 8 28 13 15 9 4 12 13 8 10 8
23 38 8 17 17 19 23 17 23 24 28 7 12 13 7 7 8 20 18 18 22 16 13 5 2 8 13 9 11 -2 -3 -1 6 24 18 4 10 5 5 9 1 21 5
24 32 29 16 9 3 10 13 8 8 10 16 23 10 15 9 16 19 17 14 15 13 19 5 7 2 5 10 10 -7 -9 4 32 3 11 -2 5 11 10 7 5 3 11
24 26 52 34 16 14 12 19 14 12 5 4 14 7 24 18 11 21 11 13 11 5 4 10 0 4 9 13 -4 -29 50 7 18 8 -4 6 6 5 8 10 6 14 8
15 22 22 35 51 0 1 15 28 28 44 24 20 10 2 12 5 -5 22 14 14 5 11 4 9 6 -11 32 -10 2 25 36 8 8 9 8 7 4 11 13 20 5 13
12 15 13 27 25 67 13 23 13 14 18 18 15 23 19 27 25 26 1 13 6 3 15 7 11 27 11 16 17 4 21 6 10 8 6 7 9 12 4 13 9 23 -4
10 15 13 7 13 34 37 40 41 47 37 4 10 5 15 15 12 -37 2 19 32 1 34 10 -1 -36 12 10 2 13 8 -8 11 8 10 8 5 4 10 9 5 10 5
7 8 4 2 10 19 19 17 16 4 34 36 34 43 50 56 56 0 23 48 -16 17 30 -5 -5 -30 -11 20 13 27 -10 38 -13 12 6 11 10 11 6 9 10 18 19
5 7 5 4 6 8 7 7 0 -0 8 23 16 16 9 18 16 39 32 35 52 37 33 9 9 57 47 34 1 4 24 11 11 4 13 10 4 12 4 14 8 8 3
5 5 6 5 5 4 5 5 6 6 7 11 7 7 7 6 9 15 15 15 13 15 15 36 41 30 40 33 18 15 4 -6 11 16 4 9 4 6 8 1 8 1 5
5 6 6 6 6 5 5 5 5 4 4 5 5 5 5 6 6 7 7 8 10 7 8 9 17 14 14 18 20 22 24 33 28 26 26 16 3 4 3 7 17 10 -1
7 7 8 8 8 8 8 8 7 7 7 6 5 6 6 6 4 5 5 5 5 5 6 7 7 8 8 9 9 9 11 16 21 19 20 19 16 17 10 8 1 -3 6
9 9 9 8 7 8 8 8 8 8 7 7 7 6 6 5 5 5 5 4 4 5 5 4 4 4 5 6 8 8 7 7 7 8 12 15 19 17 19 25 26 23 16
5 5 5 5 6 5 4 4 5 5 5 6 6 6 6 6 7 7 7 7 7 6 6 6 7 6 5 6 7 7 8 8 8 6 7 8 10 13 16 17 17 17 18
4 4 5 6 6 6 6 6 5 5 5 6 7 7 7 8 7 7 7 7 7 7 8 10 9 8 9 8 7 6 7 9 9 9 8 7 8 8 10 11 12 15 18
5 5 4 4 4 4 6 6 7 6 6 8 8 8 9 10 11 10 10 11 11 12 10 11 12 12 12 12 13 14 12 10 11 11 11 10 9 9 9 10 10 10 12
5 6 6 7 8 7 6 6 7 8 9 10 14 13 11 13 13 14 15 16 15 16 15 14 13 14 16 17 16 14 15 16 15 14 14 13 12 11 11 9 10 11 10
5 5 6 7 6 7 7 7 8 10 11 11 14 13 13 15 15 14 16 14 14 14 14 14 14 15 15 15 16 19 18 16 16 16 15 15 15 15 15 14 12 11 11
5 5 6 7 7 6 7 8 11 11 11 12 11 12 12 12 12 13 14 15 13 13 13 12 11 11 11 13 14 14 16 17 17 16 17 16 15 15 15 16 18 12 12
5 6 7 7 7 8 9 10 10 11 11 11 10 11 11 12 13 12 14 15 14 14 12 12 12 11 11 11 12 13 14 14 15 16 15 15 15 15 14 14 14 14 17
6 7 7 8 8 10 10 10 10 10 10 10 9 9 10 12 12 14 15 16 17 16 14 13 12 12 12 12 12 13 14 14 14 15 15 14 14 14 13 14 14 13 15
7 8 8 9 9 10 10 10 10 10 9 9 9 10 10 11 12 13 14 15 17 18 16 16 15 13 11 12 12 13 13 14 14 13 13 14 15 16 15 15 15 15 13
8 8 9 10 12 11 11 11 10 10 10 10 11 12 12 13 13 14 14 13 14 14 16 15 15 15 14 14 13 13 13 14 15 15 14 13 14 14 15 15 14 15 16
8 9 10 11 11 11 11 10 10 10 11 11 12 13 13 13 13 12 12 12 13 13 14 15 15 15 15 15 15 15 13 13 14 14 14 15 14 15 16 16 16 16 16
9 10 11 11 11 11 11 11 11 11 12 12 13 13 14 14 13 13 11 11 12 13 14 14 14 14 15 16 16 15 15 14 13 13 13 14 13 13 13 13 13 14 15
Height
2935 2935 2938 2941 2944 2945 2945 2944 2946 2954 2965 2972 2977 2983 2987 2971 3002 3009 3007 3016 3022 3027 3035 3041 3045 3048 3049 3051 3053 3055 3056 3057 3057 3061 3061 3062 3061 3062 3062 3063 3062 3062 3061
2933 2933 2934 2936 2936 2936 2936 2936 2937 2943 2952 2961 2967 2971 2979 2985 2991 2996 2995 3005 3011 3015 3025 3031 3034 3037 3039 3041 3042 3045 3046 3048 3048 3049 3050 3054 3054 3053 3051 3052 3053 3053 3052
2933 2930 2930 2930 2931 2932 2932 2933 2935 2939 2946 2953 2960 2962 2967 2976 2981 2982 2989 2997 3000 3005 3015 3021 3025 3027 3028 3031 3033 3036 3037 3038 3038 3038 3043 3043 3044 3045 3044 3041 3041 3042 3042
2935 2929 2927 2928 2930 2931 2932 2933 2937 2941 2945 2949 2955 2960 2965 2969 2973 2978 2984 2988 2989 2998 3006 3009 3012 3015 3018 3020 3023 3026 3028 3030 3029 3029 3032 3033 3034 3034 3034 3033 3030 3030 3033
2940 2936 2930 2926 2928 2931 2932 2934 2936 2938 2940 2943 2947 2948 2952 2962 2965 2968 2972 2974 2980 2989 2993 2998 3001 3005 3008 3010 3013 3017 3015 3020 3020 3020 3022 3023 3024 3024 3023 3023 3021 3020 3020
2945 2939 2934 2929 2923 2926 2932 2933 2935 2935 2933 2933 2944 2949 2952 2955 2958 2960 2965 2972 2977 2981 2984 2987 2992 2994 2999 3000 3002 3004 3008 3008 3009 3009 3011 3012 3014 3013 3012 3011 3009 3009 3007
2953 2947 2942 2938 2933 2928 2932 2934 2934 2935 2938 2941 2944 2947 2948 2952 2953 2956 2960 2966 2970 2974 2976 2978 2981 2984 2987 2990 2991 2993 2995 2997 2998 2999 3001 3001 3003 3001 3001 3000 2999 2997 2996
2960 2955 2950 2947 2942 2939 2936 2933 2937 2936 2938 2940 2945 2947 2949 2950 2948 2938 2945 2956 2961 2962 2965 2968 2970 2972 2977 2979 2981 2982 2983 2986 2987 2989 2990 2991 2991 2991 2990 2988 2988 2986 2985
2967 2962 2958 2956 2953 2950 2945 2941 2943 2942 2939 2942 2944 2942 2945 2945 2945 2946 2948 2952 2949 2945 2954 2956 2961 2960 2964 2968 2967 2968 2971 2973 2977 2978 2979 2979 2979 2979 2979 2978 2976 2974 2974
2974 2970 2967 2964 2961 2957 2955 2953 2953 2952 2951 2947 2949 2946 2946 2945 2942 2940 2950 2940 2944 2945 2948 2950 2951 2954 2955 2957 2959 2962 2962 2962 2965 2966 2967 2968 2968 2968 2967 2966 2966 2965 2963
2980 2978 2975 2972 2968 2964 2963 2962 2961 2959 2957 2957 2955 2955 2952 2953 2950 2949 2947 2948 2946 2944 2946 2944 2946 2950 2948 2948 2949 2950 2951 2952 2953 2954 2955 2956 2956 2956 2956 2956 2955 2955 2954
2984 2982 2980 2977 2975 2973 2970 2968 2966 2965 2963 2961 2959 2957 2956 2955 2952 2951 2952 2952 2944 2946 2945 2942 2945 2946 2944 2944 2943 2943 2942 2942 2942 2942 2942 2942 2943 2945 2945 2944 2943 2942 2943
2988 2985 2983 2981 2979 2977 2975 2973 2971 2969 2967 2964 2962 2961 2960 2957 2955 2953 2952 2949 2947 2946 2945 2943 2943 2943 2940 2939 2938 2937 2936 2934 2934 2933 2932 2932 2932 2932 2932 2932 2931 2931 2930
2992 2989 2987 2985 2982 2980 2978 2975 2973 2970 2967 2966 2964 2962 2960 2958 2957 2955 2951 2946 2943 2943 2942 2941 2940 2940 2938 2936 2935 2933 2932 2930 2928 2927 2926 2924 2923 2922 2921 2920 2919 2919 2919
2994 2991 2988 2985 2981 2979 2977 2975 2972 2969 2966 2964 2961 2958 2956 2953 2950 2946 2945 2944 2943 2942 2940 2937 2935 2934 2931 2929 2927 2926 2925 2923 2921 2919 2917 2916 2914 2913 2912 2910 2909 2909 2909
2995 2993 2991 2988 2985 2981 2976 2972 2968 2966 2964 2961 2957 2954 2951 2948 2944 2941 2938 2936 2934 2930 2929 2928 2926 2925 2924 2922 2920 2918 2916 2914 2912 2910 2908 2906 2905 2904 2903 2901 2901 2901 2900
2997 2995 2992 2988 2985 2982 2978 2975 2972 2967 2962 2959 2954 2949 2946 2943 2940 2936 2932 2927 2924 2921 2919 2918 2915 2913 2911 2910 2908 2907 2906 2903 2901 2900 2899 2898 2896 2895 2894 2893 2892 2892 2892
2995 2993 2990 2987 2983 2978 2973 2970 2967 2964 2960 2956 2953 2947 2942 2938 2933 2929 2925 2921 2918 2914 2909 2906 2905 2903 2901 2899 2897 2895 2894 2893 2891 2890 2889 2888 2887 2886 2884 2884 2884 2884 2884
2993 2989 2986 2982 2977 2973 2969 2966 2962 2957 2952 2947 2944 2940 2935 2931 2926 2922 2919 2914 2909 2907 2904 2899 2896 2894 2891 2888 2886 2885 2884 2883 2881 2880 2879 2878 2877 2876 2876 2876 2876 2877 2877
2989 2985 2981 2977 2972 2967 2962 2958 2954 2949 2944 2938 2934 2931 2926 2922 2919 2915 2911 2908 2904 2900 2896 2892 2888 2886 2884 2880 2877 2875 2874 2873 2872 2871 2870 2869 2868 2868 2868 2868 2868 2869 2870
2984 2981 2977 2972 2967 2960 2954 2949 2944 2939 2935 2930 2925 2921 2917 2912 2907 2903 2900 2898 2895 2891 2888 2884 2881 2878 2875 2872 2870 2868 2866 2865 2863 2862 2861 2860 2860 2860 2860 2860 2861 2861 2861
2981 2976 2971 2965 2959 2953 2948 2943 2937 2932 2926 2921 2915 2910 2906 2903 2899 2895 2891 2888 2884 2881 2878 2875 2872 2869 2867 2864 2862 2861 2858 2857 2856 2854 2854 2853 2852 2852 2852 2853 2853 2855 2856
2976 2971 2965 2959 2953 2948 2943 2937 2932 2926 2921 2915 2910 2904 2899 2894 2890 2885 2880 2877 2875 2872 2869 2867 2864 2861 2859 2856 2854 2852 2850 2849 2848 2848 2847 2846 2847 2846 2846 2847 2847 2848 2848
2970 2965 2959 2952 2947 2941 2936 2930 2925 2919 2913 2908 2902 2897 2891 2887 2882 2878 2874 2870 2866 2863 2861 2858 2855 2853 2851 2848 2846 2844 2843 2842 2841 2841 2840 2839 2839 2839 2839 2840 2841 2842 2842
2964 2957 2951 2945 2940 2934 2929 2924 2919 2913 2907 2901 2896 2891 2885 2880 2875 2870 2867 2863 2859 2856 2853 2850 2847 2845 2843 2840 2839 2837 2836 2835 2834 2834 2833 2834 2833 2834 2834 2834 2835 2835 2836
2956 2949 2943 2938 2933 2928 2922 2917 2911 2905 2899 2893 2888 2883 2878 2874 2869 2864 2858 2854 2851 2848 2845 2842 2839 2837 2835 2833 2832 2830 2829 2828 2828 2827 2827 2828 2828 2828 2828 2829 2829 2830 2831